Regional Weather Roundup
Issued by NWS Green Bay, WI

Home | Current Version | Previous Version | Graphics & Text | Print | Product List | Glossary Off
Versions: 1 2 3 4 5 6 7 8 9 10 11 12 13 14 15 16 17 18 19 20 21 22 23 24 25 26 27 28 29 30 31 32 33 34 35 36 37 38 39 40 41 42 43 44 45 46 47 48 49 50

000
ASUS43 KGRB 051610
RWRGRB

NORTH-CENTRAL AND NORTHEAST WISCONSIN REGIONAL WEATHER ROUNDUP
NATIONAL WEATHER SERVICE GREEN BAY WI
1100 AM CDT TUE MAY 05 2015

WIZ005-009-010>012-018-019-051700-
NORTH CENTRAL WISCONSIN

CITY           SKY/WX    TMP DP  RH WIND       PRES   REMARKS
IRONWOOD       SUNNY     64  27  24 E8G16     30.26F
MANITOWISH WTR SUNNY     63  29  27 SE8       30.30F
ARBOR VITAE    SUNNY     63  31  30 SE8       30.30F
EAGLE RIVER    SUNNY     64  28  26 E9        30.31F
LAND O LAKES   SUNNY     64  21  19 E10       30.32F
RHINELANDER    SUNNY     64  28  25 E10       30.31S
PHILLIPS       SUNNY     64  26  24 SE10      30.28F
ANTIGO         SUNNY     60  29  31 SE10      30.32S
TOMAHAWK       SUNNY     64  19  18 CALM      30.30S
MERRILL        SUNNY     64  22  20 E10G20    30.30F
$$

WIZ013-073-051700-
NORTHEAST WISCONSIN

CITY           SKY/WX    TMP DP  RH WIND       PRES   REMARKS
IRON MOUNTAIN  SUNNY     64  29  26 E8        30.32S
MARINETTE      SUNNY     55  36  47 E7        30.34F
OCONTO         MOSUNNY   56  35  44 E6        30.34S
$$

WIZ017-030-035>037-045-051700-
CENTRAL WISCONSIN

CITY           SKY/WX    TMP DP  RH WIND       PRES   REMARKS
MEDFORD        SUNNY     61  21  21 E13G22    30.29S
WAUSAU         SUNNY     63  18  17 E17G26    30.29S
MOSINEE        SUNNY     61  21  21 E16       30.31S
MARSHFIELD     MOSUNNY   63  30  28 E13       30.29S
WISC RAPIDS    NOT AVBL
STEVENS POINT  MOSUNNY   60  26  26 E14G22    30.31S
WAUPACA        MOSUNNY   61  32  33 E8        30.32R
SHAWANO        SUNNY     64  30  27 NE12      30.33S
CLINTONVILLE   MOSUNNY   63  23  22 SE13G18   30.31S
$$

WIZ038-039-048-051-051700-
FOX VALLEY

CITY           SKY/WX    TMP DP  RH WIND       PRES   REMARKS
NWS GREEN BAY  MOSUNNY   59  36  42 NE12      30.32S
APPLETON       PTSUNNY   55  32  41 NE9       30.32R
OSHKOSH        CLOUDY    55  38  52 E7        30.31R
FOND DU LAC    CLOUDY    55  40  56 E8        30.31R
$$

WIZ022-050-052-051700-
EAST CENTRAL WISCONSIN

CITY           SKY/WX    TMP DP  RH WIND       PRES   REMARKS
STURGEON BAY   MOSUNNY   57  30  35 E9        30.36F
MANITOWOC      CLOUDY    52  36  54 NE7       30.33R
SHEBOYGAN      CLOUDY    52  39  61 E7        30.31R
$$

LMZ563-521-522-541>543-051700-
LAKESHORE

STATION/POSITION TIME  TEMP    WIND        PRES    VSBY  WAVE
                       AIR SEA DIR/SP/G                  HT/PER
                 (UTC) (F)     (DEG/KT/KT) (MB)    (MI)  (FT/S)
SHEBOYGAN LKSHOR 1600   45      10/  5/  5 1027.3R
KEWAUNEE LKSHORE 1600           30/ 11/ 15 1026.2R
TWO RIVERS CG    1500   48 45              1022.6   3 1/2  1
NORTHPORT PIER   1600   47     130/  4/  6 1028.1R
SISTER BAY LKSHO 1600   58     120/ 10/ 13   N/A
CHAMBERS ISLAND  1600   47     360/  8/  9 1027.8S
MENOMINEE LKSHOR 1600           20/  9/ 10 1028.1S
$$


USA.gov is the U.S. government's official web portal to all federal, state and local government web resources and services.